"Pseudo-MPEC" for P10L6zV

Created 2019 Jan 23 11:18:08 UT using Find_Orb

Click here for an explanation of pseudo-MPECs

 
 Astrometry: 
     P10L6zV  C2019 01 07(MTr14Aj0-#U8jAstrometryAy1hCFG4^VO:aEqisKFk]42'DsaHF51
     P10L6zV  C2019 01 07kQ#8?aHnU/:My3REXiYDqWX%2qJ@NoqR.6mV*#@x*s1\iLQhw.,/F51
     P10L6zV  C2019 01 074Z3@h#gx-jr,tkq1/;]:)ZIii7OeP:'tn8qn%JgeyX\0BQG\Z[_IF51
     P10L6zV KC2019 01 07KEg@^]kQpB5AwL+?#RU^g;alk`6rS;rt50W'(/QJ'Al$mQwJ^SbKL01
     P10L6zV KC2019 01 07f#8lredacted;lHJMP3%:FsmxJq\WZa%*Ysn@_fwwYDy]q)pP)dPL01
     P10L6zV IC2019 01 07r?OYyYlr'gWnd.Mba0ZjZdsx;W689Ra1K6EJI7BQ$SyC;L+6?lJ*L01
     P10L6zV  C2019 01 08kDSVpi!@mm=xqpw:fIh9?[cIU?RXnwVGTLj/G]d[N4XB[BCtbX7eV06
     P10L6zV  C2019 01 08=y]KLMZM177Fe%%-Z:*#il5Z1HkSg4i*4L/`Tj3e[$eF]D-=_7tNV06
     P10L6zV  C2019 01 08yhF]Lm7OEr-1rkUYbnq7v._W294e[ZH^`og,*fX7Q*(-clickdEUV06
     P10L6zV KC2019 01 09!n*5YeI\#/Q$P8b=JyHU\Us'e.==+y.,Hlu[WDq5.#m^;UUeT$tjH21
     P10L6zV KC2019 01 09oaB#GjoC%'AQpOTchoC4L!c=i0hg@W7[Sn(w%EGSov-XdVvbEc.?H21
     P10L6zV KC2019 01 091sLYIw[%v(3k%@ICQy+vI*uU]);0nh\Nj_KeH.x9gr=1#pyrs]nOH21
     P10L6zV  C2019 01 09.15628 04 52 52.26 +14 30 40.9    ~195I 21.6 GVNEOCPI52
     P10L6zV  C2019 01 09.15960 04 52 51.67 +14 30 52.5    ~195I 21.3 GVNEOCPI52
     P10L6zV  C2019 01 09.16293 04 52 51.07 +14 31 04.3    ~195I 21.2 GVNEOCPI52
     P10L6zV  C2019 01 09CR!hlLnWN/herehD[+U_!%^NyBBN\'`7w34*hvop-CM1qwp\L+A^V06
     P10L6zV  C2019 01 09jU:$_][5RQBuX^a)51cL]IG]-dYt=7!-F;e_xFt*RdTAnCRWo6MhV06
     P10L6zV  C2019 01 09^DXJ)1p#;sug'[$Ilt_Mj2;KsWHqta;R1x=[U38N.%/%:4N,b33,V06
     P10L6zV  C2019 01 09DYA:f,l)AHYv%^`*RN29jyLvxUTK:hJtc`o0CjX`J/?bI#;w5Tg4V06
     P10L6zV KC2019 01 10P9J40KDSpWmt@f\iiQf$_-8@$for%UPq+ig/F!sKy'uVtov;,?*]K51
     P10L6zV KC2019 01 10q4L!+2DLAj';p'Bk7p;heG-p^m3[9hRd#%ebk0ifTp'$w#p5N1WmK51
     P10L6zV KC2019 01 10RK?*ivcU^T?MAsxxuZHdb3AUE`s;q#GvB,frou1$:8yg6U?25APQK51
     P10L6zV ^C2019 01 21I77p44T,LO=PCVOdl**XtKc%Z5f3U6l8-Zc425=P?:`n%RS/e'4N695
     P10L6zV ^C2019 01 21'rd?YEyw322QRkJ.explanation-Ys4H!uHRjO%UI8TH5A4HLPTr695

Station data:
(695) Kitt Peak  (N31.958398 W111.594670)  US/Arizona.
(F51) Pan-STARRS 1, Haleakala  (N20.707235 W156.255910)  US/Hawaii.
   Observers N. Primak, A. Schultz, S. Watters, J. Thiel, T. Goggia. Measurer
   PS1 Science Consortium. 1.8-m Ritchey-Chrétien + CCD.
(H21) Astronomical Research Observatory, Westfield  (N39.483057 W87.968270)
   US/Illinois. 0.76-m f/3.0 astrograph + CCD.
(I52) Steward Observatory, Mt. Lemmon Station  (N32.442547 W110.788920)
   US/Arizona.  Observers B. M. Africano, E. J. Christensen, G. A. Farneth,
   D. C. Fuls, A. R. Gibbs, A. D. Grauer, H. Groeller, J. A. Johnson, R. A.
   Kowalski, S. M. Larson, G. J. Leonard, R. L. Seaman, F. C. Shelly. 1.0-m
   reflector + CCD.
(K51) Osservatorio del Celado, Castello Tesino  (N46.029412 E11.657900)
   Italy.
(L01) Višnjan Observatory, Tičan  (N45.290900 E13.749300)  Croatia.
   Observers K. Korlević, E. Pettarin. Measurer E. Pettarin. 1.0-m f/2.9
   reflector + CCD.
(V06) Catalina Sky Survey-Kuiper  (N32.416847 W110.732550)  US/Arizona.
   Observers B. M. Africano, E. J. Christensen, G. A. Farneth, D. C. Fuls, A.
   R. Gibbs, A. D. Grauer, H. Groeller, J. A. Johnson, R. A. Kowalski, S. M.
   Larson, G. J. Leonard, R. L. Seaman, F. C. Shelly. 1.55-m reflector + CCD.

Orbital elements:  P10L6zV
   Perihelion 2019 Jul 29.222725 +/- 0.513 TT =  5:20:43 (JD 2458693.722725)
Epoch 2019 Jan 21.0 TT = JDT 2458504.5   Earth MOID: 0.4448   Ma: 0.0277
M 258.74291272 +/- 0.38             (J2000 ecliptic)          AutoNEOCP
n   0.53512117 +/- 0.000612         Peri.  110.33610 +/- 0.40
a   1.50256969 +/- 0.00115          Node    97.61415 +/- 0.007
e   0.0649526 +/- 0.000315          Incl.   51.16901 +/- 0.036
P   1.84/672.73d           H 20.7   G  0.15   U  7.8  
q 1.40497373 +/- 0.00154    Q 1.60016564 +/- 0.000779
From 24 observations 2019 Jan. 7-21; mean residual 0".28
Residuals in arcseconds: 
190107 F51  .07+  .17+    190108 V06  .02-  .16+    190109 V06  .16+  .08-    
190107 F51  .10-  .11-    190109 H21  .07+  .54-    190109 V06  .44-  .10-    
190107 F51  .25-  .41+    190109 H21  .38+  .44-    190109 V06  .04-  .08+    
190107 L01  .32-  .33+    190109 H21  .25+  .37-    190110 K51  .12-  .17+    
190107 L01  .33+  .35-    190109 I52  .06-  .20-    190110 K51  .21-  .05+    
190107 L01  .33+  .09-    190109 I52  .09+  .26-    190110 K51  .14+  .82+    
190108 V06  .44-  .77+    190109 I52  .12+  .16-    190121 695  .08+  .06-    
190108 V06  .07-  .05+    190109 V06  .11-  .06-    190121 695  .08-  .02+    

Ephemerides (geocentric):
Date (UTC) HH   RA              Dec         delta   r     elong  mag " sig PA
---- -- -- --  -------------   -----------  ------ ------ -----  --- ---- ---
2019 01 23 11  04 19 05.534   +26 38 41.95  .73470 1.5255 124.5 22.3 .372  62
2019 01 23 12  04 19 01.159   +26 40 28.99  .73510 1.5254 124.4 22.3 .378  62
2019 01 23 13  04 18 56.793   +26 42 15.92  .73549 1.5254 124.4 22.3 .384  62
2019 01 23 14  04 18 52.436   +26 44 02.73  .73589 1.5253 124.3 22.3 .390  62
2019 01 23 15  04 18 48.088   +26 45 49.43  .73629 1.5253 124.3 22.3 .396  62
2019 01 23 16  04 18 43.750   +26 47 36.02  .73668 1.5253 124.2 22.3 .402  62
2019 01 23 17  04 18 39.420   +26 49 22.49  .73708 1.5252 124.1 22.3 .408  63
2019 01 23 18  04 18 35.099   +26 51 08.85  .73748 1.5252 124.1 22.3 .414  63
2019 01 23 19  04 18 30.787   +26 52 55.09  .73788 1.5252 124.0 22.3 .420  63
2019 01 23 20  04 18 26.485   +26 54 41.22  .73828 1.5251 124.0 22.3 .426  63
2019 01 23 21  04 18 22.191   +26 56 27.23  .73868 1.5251 123.9 22.3 .432  63
2019 01 23 22  04 18 17.906   +26 58 13.14  .73908 1.5251 123.9 22.3 .438  63
2019 01 23 23  04 18 13.631   +26 59 58.93  .73948 1.5250 123.8 22.3 .445  63
2019 01 24 00  04 18 09.364   +27 01 44.60  .73988 1.5250 123.8 22.3 .451  63
2019 01 24 01  04 18 05.106   +27 03 30.17  .74028 1.5249 123.7 22.3 .457  63
2019 01 24 02  04 18 00.858   +27 05 15.62  .74068 1.5249 123.6 22.3 .463  63
2019 01 24 03  04 17 56.618   +27 07 00.95  .74109 1.5249 123.6 22.3 .469  63
2019 01 24 04  04 17 52.387   +27 08 46.18  .74149 1.5248 123.5 22.3 .476  63
2019 01 24 05  04 17 48.166   +27 10 31.29  .74189 1.5248 123.5 22.3 .482  63
2019 01 24 06  04 17 43.953   +27 12 16.29  .74229 1.5248 123.4 22.3 .488  63
2019 01 24 07  04 17 39.750   +27 14 01.18  .74270 1.5247 123.4 22.3 .495  63
2019 01 24 08  04 17 35.555   +27 15 45.95  .74310 1.5247 123.3 22.3 .501  63
2019 01 24 09  04 17 31.369   +27 17 30.61  .74350 1.5247 123.3 22.3 .507  63
2019 01 24 10  04 17 27.193   +27 19 15.16  .74391 1.5246 123.2 22.3 .514  63
2019 01 24 11  04 17 23.025   +27 20 59.60  .74431 1.5246 123.2 22.3 .520  63
2019 01 24 12  04 17 18.867   +27 22 43.93  .74472 1.5245 123.1 22.3 .527  63
2019 01 24 13  04 17 14.717   +27 24 28.14  .74512 1.5245 123.1 22.3 .533  63
2019 01 24 14  04 17 10.576   +27 26 12.24  .74553 1.5245 123.0 22.3 .540  63
2019 01 24 15  04 17 06.445   +27 27 56.23  .74594 1.5244 122.9 22.3 .546  63
2019 01 24 16  04 17 02.322   +27 29 40.11  .74634 1.5244 122.9 22.3 .553  64
2019 01 24 17  04 16 58.209   +27 31 23.88  .74675 1.5244 122.8 22.3 .559  64
2019 01 24 18  04 16 54.104   +27 33 07.54  .74716 1.5243 122.8 22.3 .566  64
2019 01 24 19  04 16 50.008   +27 34 51.08  .74756 1.5243 122.7 22.4 .573  64
2019 01 24 20  04 16 45.922   +27 36 34.51  .74797 1.5243 122.7 22.4 .579  64
2019 01 24 21  04 16 41.844   +27 38 17.84  .74838 1.5242 122.6 22.4 .586  64
2019 01 24 22  04 16 37.775   +27 40 01.05  .74879 1.5242 122.6 22.4 .593  64
2019 01 24 23  04 16 33.715   +27 41 44.15  .74920 1.5241 122.5 22.4 .599  64
2019 01 25 00  04 16 29.665   +27 43 27.14  .74961 1.5241 122.5 22.4 .606  64
2019 01 25 01  04 16 25.623   +27 45 10.02  .75002 1.5241 122.4 22.4 .613  64
2019 01 25 02  04 16 21.590   +27 46 52.79  .75042 1.5240 122.3 22.4 .620  64
2019 01 25 03  04 16 17.566   +27 48 35.45  .75084 1.5240 122.3 22.4 .627  64
2019 01 25 04  04 16 13.551   +27 50 18.00  .75125 1.5240 122.2 22.4 .633  64
2019 01 25 05  04 16 09.545   +27 52 00.44  .75166 1.5239 122.2 22.4 .640  64
2019 01 25 06  04 16 05.549   +27 53 42.76  .75207 1.5239 122.1 22.4 .647  64
2019 01 25 07  04 16 01.561   +27 55 24.98  .75248 1.5239 122.1 22.4 .654  64
2019 01 25 08  04 15 57.581   +27 57 07.09  .75289 1.5238 122.0 22.4 .661  64
2019 01 25 09  04 15 53.611   +27 58 49.09  .75330 1.5238 122.0 22.4 .668  64
2019 01 25 10  04 15 49.650   +28 00 30.98  .75372 1.5237 121.9 22.4 .675  64